This demonstration page uses our WeatherBlox Daily Observations layout. Learn more.

Left ArrowRight Arrow

41.86663, -103.66717

Hourly Observations for July 6, 2020

Temp ( °F °C ) Dew Point ( °F °C ) Humidity (%) Winds ( mph kmh ) Pressure ( in mb ) Visibility ( mi km ) Precip ( " mm )
12:53 am 00:53 Clear 62 16.7 55 12.8 78 78 ENE 8 13 29.89 1012 10 16 N/A
1:53 am 01:53 Clear 61 16.1 56 13.3 84 84 ENE 7 11 29.88 1012 10 16 N/A
2:53 am 02:53 Clear 63 17.2 55 12.8 76 76 E 7 11 29.86 1011 10 16 N/A
3:53 am 03:53 Clear 61 16.1 56 13.3 84 84 E 3 6 29.89 1012 10 16 N/A
4:53 am 04:53 Clear 61 16.1 58 14.4 90 90 undefined N/A 29.91 1013 10 16 N/A
5:53 am 05:53 Sunny 62 16.7 57 13.9 84 84 ENE 5 7 29.93 1013 10 16 N/A
6:53 am 06:53 Sunny 66 18.9 58 14.4 75 75 undefined N/A 29.94 1014 10 16 N/A
7:53 am 07:53 Mostly Sunny 70 21.1 60 15.6 71 71 VRB 5 7 29.94 1014 10 16 N/A
8:53 am 08:53 Sunny 74 23.3 60 15.6 62 62 VRB 7 11 29.95 1014 10 16 N/A
9:53 am 09:53 Sunny 76 24.4 62 16.7 62 62 SW 3 6 29.94 1014 10 16 N/A
10:53 am 10:53 Sunny 78 25.6 62 16.7 58 58 N N/A 29.93 1014 10 16 N/A
11:53 am 11:53 Sunny 82 27.8 63 17.2 53 53 WSW 5 7 29.91 1013 10 16 N/A
12:53 pm 12:53 Sunny 85 29.4 60 15.6 43 43 VRB 6 9 29.90 1013 10 16 N/A
1:53 pm 13:53 Sunny 91 32.8 58 14.4 33 33 VRB 6 9 29.87 1011 10 16 N/A
2:53 pm 14:53 Sunny 93 33.9 58 14.4 31 31 VRB 3 6 29.83 1010 10 16 N/A
3:53 pm 15:53 Sunny 95 35 54 12.2 25 25 E 6 9 29.81 1009 10 16 N/A
4:53 pm 16:53 Sunny 97 36.1 45 7.2 17 17 NNE 5 7 29.79 1009 10 16 N/A
5:45 pm 17:45 Sunny with Nearby Thunderstorms 90 32.2 56 13.3 32 32 WNW 3 6 29.60 1002 10 16 N/A
5:53 pm 17:53 Partly Cloudy with Nearby Thunderstorms 89 31.7 51 10.6 27 27 SW 23 37 29.81 1010 10 16 N/A
6:03 pm 18:03 Mostly Cloudy with Nearby Thunderstorms 89 31.7 42 5.6 19 19 W 24 39 29.64 1004 7 11 0.00 0.00
6:10 pm 18:10 Windy with Storms Likely 82 28 48 9 30 30 S 31 50 29.66 1005 8 13 N/A
6:22 pm 18:22 Windy with Storms Likely 78 25.6 54 12.2 43 43 SE 20 31 29.69 1005 9 14 0.00 0.00
6:29 pm 18:29 Partly Cloudy with Nearby Thunderstorms 80 26.7 54 12.2 41 41 ESE 16 26 29.66 1004 10 16 0.00 0.00
6:42 pm 18:42 Sunny 82 27.8 52 11.1 35 35 SE 9 15 29.64 1004 10 16 0.00 0.00
6:53 pm 18:53 Sunny 85 29.4 52 11.1 32 32 ESE 3 6 29.76 1008 10 16 0.00 0.00
7:53 pm 19:53 Sunny 80 26.7 59 15 49 49 ESE 8 13 29.80 1009 10 16 N/A
8:53 pm 20:53 Clear 75 23.9 57 13.9 54 54 E 10 17 29.82 1010 10 16 N/A
9:53 pm 21:53 Clear 73 22.8 57 13.9 57 57 ESE 9 15 29.85 1011 10 16 N/A
10:53 pm 22:53 Clear 70 21.1 55 12.8 59 59 ESE 9 15 29.83 1010 10 16 N/A
11:53 pm 23:53 Clear 69 20.6 53 11.7 57 57 ESE 12 19 29.80 1009 10 16 N/A

Powered by AerisWeather